x

Huron Light, Oh (hhlo1) Weather Station

3:00pm - Tue 29th Jul 2014 All times are CDT. -5 hours from GMT.

  • Wind
    8mph, 11mph gusts
  • Air Temp 69°f
  • Sea Pressure 1015.2mb
  • Huron Light, Oh
  • Huron Light, Oh

More Historic Weather Station data

Upgrade to MSW Pro to gain access to the past 30 days of data for over 8000 Wavebouys and Weather Stations around the globe.

Join Pro

Comparision Forecast

View Surf forecast
   
Tue 07/29 3:00pm 8 11 mph 1015.2mb 69f
2:50pm 10 14 mph 1015.2mb 69f
2:40pm 8 14 mph 1015.2mb 69f
2:30pm 9 14 mph 1015.6mb 69f
2:20pm 3 8 mph 1015.6mb 68f
2:10pm 2 10 mph 1015.6mb 68f
2:00pm 7 10 mph 1015.6mb 69f
1:50pm 5 10 mph 1015.6mb 68f
1:40pm 6 13 mph 1015.6mb 69f
1:30pm 7 10 mph 1015.9mb 69f
1:20pm 7 11 mph 1015.9mb 68f
1:10pm 6 11 mph 1015.9mb 67f
1:00pm 8 13 mph 1015.9mb 67f
12:50pm 8 11 mph 1015.9mb 67f
12:40pm 8 11 mph 1015.9mb 66f
12:30pm 7 11 mph 1015.9mb 66f
12:20pm 7 11 mph 1015.9mb 66f
12:10pm 7 13 mph 1016.3mb 65f
12:00pm 7 13 mph 1016.3mb 65f
11:50am 8 10 mph 1016.3mb 65f
11:40am 8 11 mph 1016.3mb 65f
11:30am 7 10 mph 1016.3mb 65f
11:20am 7 11 mph 1016.3mb 64f
11:10am 9 14 mph 1016.3mb 64f
11:00am 9 13 mph 1016.3mb 64f
10:50am 9 14 mph 1016.3mb 64f
10:40am 9 13 mph 1016.3mb 64f
10:30am 8 10 mph 1016.3mb 64f
10:20am 7 13 mph 1016.3mb 64f
10:10am 9 14 mph 1016.3mb 64f
10:00am 10 14 mph 1016.3mb 63f
9:50am 11 14 mph 1016.3mb 63f
9:40am 10 16 mph 1016.3mb 63f
9:30am 9 13 mph 1015.9mb 62f
9:20am 8 13 mph 1015.9mb 62f
9:10am 7 14 mph 1015.9mb 62f
9:00am 9 15 mph 1015.9mb 62f
8:50am 10 16 mph 1015.9mb 62f
8:40am 8 11 mph 1015.9mb 62f
8:30am 8 9 mph 1015.6mb 62f
8:20am 6 8 mph 1015.6mb 62f
8:10am 6 8 mph 1015.6mb 61f
8:00am 6 9 mph 1015.6mb 61f
7:50am 7
mph
1015.6mb 60f
7:40am 5 7 mph 1015.6mb 60f
7:30am 3 6 mph 1015.6mb 60f
7:20am 1 9 mph 1015.6mb 63f
7:10am 5 11 mph 1015.2mb 62f
7:00am 7 11 mph 1015.2mb 63f
6:50am 8 11 mph 1014.9mb 62f
6:40am 8 11 mph 1014.9mb 62f
6:30am 7 13 mph 1014.9mb 62f
6:20am 7 10 mph 1014.9mb 62f
6:10am 8 15 mph 1014.9mb 63f
6:00am 10 15 mph 1014.9mb 63f
5:50am 13 16 mph 1014.6mb 62f
5:40am 11 14 mph 1014.6mb 62f
5:30am 9 14 mph 1014.6mb 62f
5:20am 10 18 mph 1014.6mb 62f
5:10am 9 16 mph 1014.6mb 63f
5:00am 9 15 mph 1014.6mb 62f
4:50am 11 15 mph 1014.6mb 62f
4:40am 11 14 mph 1014.2mb 62f
4:30am 11 16 mph 1014.2mb 62f
4:20am 9 15 mph 1014.6mb 62f
4:10am 10 15 mph 1014.2mb 62f
4:00am 9 16 mph 1014.6mb 62f
3:50am 6 10 mph 1014.2mb 62f
3:40am 8 14 mph 1014.2mb 62f
3:30am 9 13 mph 1014.2mb 62f
3:20am 8 9 mph 1014.2mb 62f
3:10am 9 11 mph 1014.2mb 62f
3:00am 9 14 mph 1014.2mb 62f
2:50am 8 14 mph 1013.9mb 62f
2:40am 10 16 mph 1014.2mb 62f
2:30am 9 14 mph 1014.2mb 62f
2:20am 13 14 mph 1014.2mb 62f
2:10am 9 15 mph 1014.2mb 62f
2:00am 9 14 mph 1014.2mb 61f
1:50am 9 14 mph 1014.6mb 61f
1:40am 9 14 mph 1014.6mb 61f
1:30am 10 16 mph 1014.6mb 61f
1:20am 14 16 mph 1014.6mb 61f
1:10am 13 18 mph 1014.6mb 62f
1:00am 14 18 mph 1014.6mb 62f
12:50am 11 18 mph 1014.6mb 62f
12:40am 11 15 mph 1014.6mb 62f
12:30am 11 18 mph 1014.9mb 62f
12:20am 14 20 mph 1014.9mb 62f
12:10am 10 18 mph 1014.9mb 62f
12:00am 13 20 mph 1014.9mb 62f
Mon 07/28 11:50pm 11 17 mph 1014.6mb 62f
11:40pm 16 23 mph 1014.6mb 62f
11:30pm 15 20 mph 1014.6mb 62f
11:20pm 13 18 mph 1014.6mb 62f
11:10pm 18 21 mph 1014.6mb 62f
11:00pm 15 21 mph 1014.6mb 62f
10:50pm 15 20 mph 1014.6mb 63f
10:40pm 15 22 mph 1014.6mb 63f
10:30pm 16 23 mph 1014.6mb 63f
10:20pm 18 25 mph 1014.6mb 62f
10:10pm 17 22 mph 1014.6mb 63f
10:00pm 16 23 mph 1014.6mb 63f
9:50pm 17 22 mph 1014.6mb 63f
9:40pm 18
mph
1014.6mb 63f
9:32pm 16 30 mph 1014.2mb 63f
9:30pm 17 20 mph 1014.6mb 63f
9:20pm 18 23 mph 1014.6mb 63f
9:10pm 16 20 mph 1014.6mb 63f
9:00pm 16 20 mph 1014.6mb 63f
8:50pm 14 20 mph 1014.6mb 64f
8:40pm 14 22 mph 1014.2mb 64f
8:30pm 17 21 mph 1014.2mb 64f
8:20pm 15 22 mph 1014.2mb 64f
8:10pm 17 22 mph 1013.9mb 64f
8:00pm 20 23 mph 1013.9mb 64f
7:50pm 21 24 mph 1013.5mb 64f
7:40pm 20 24 mph 1013.5mb 64f
7:30pm 22 28 mph 1013.5mb 64f
7:20pm 21 28 mph 1013.5mb 65f
7:10pm 16 20 mph 1013.5mb 66f
7:00pm 15 18 mph 1013.5mb 66f
6:50pm 13 15 mph 1013.2mb 66f
6:40pm 7 14 mph 1013.2mb 65f
6:30pm 10 14 mph 1013.2mb 65f
6:20pm 9 14 mph 1013.5mb 66f
6:10pm 9 16 mph 1013.2mb 66f
6:00pm 13 17 mph 1013.2mb 66f
5:50pm 13 18 mph 1013.2mb 66f
5:40pm 15 18 mph 1013.5mb 66f
5:30pm 15 20 mph 1013.2mb 65f
5:20pm 14 20 mph 1013.2mb 65f
5:10pm 16 17 mph 1013.2mb 65f
5:00pm 16 20 mph 1013.2mb 65f
4:50pm 16 21 mph 1013.2mb 65f
4:40pm 16 18 mph 1013.2mb 65f
4:30pm 14 18 mph 1013.2mb 65f
4:20pm 16 20 mph 1013.2mb 66f
4:10pm 16 21 mph 1012.9mb 66f
4:00pm 17 22 mph 1012.9mb 66f
3:50pm 15 21 mph 1012.9mb 66f
3:40pm 15 23 mph 1012.9mb 66f
3:30pm 15 18 mph 1012.9mb 66f
3:20pm 14 21 mph 1012.9mb 66f
3:10pm 16 22 mph 1012.9mb 66f
3:00pm 15 18 mph 1012.5mb 67f
2:50pm 17 20 mph 1012.5mb 67f
2:40pm 16 22 mph 1012.5mb 67f
2:30pm 15 21 mph 1012.5mb 66f
2:20pm 14 18 mph 1012.5mb 67f
2:10pm 13 17 mph 1012.5mb 67f
2:00pm 15 20 mph 1012.5mb 67f
1:50pm 16 21 mph 1012.2mb 67f
1:40pm 16 23 mph 1012.2mb 67f
1:30pm 15 22 mph 1012.2mb 67f
1:20pm 18 26 mph 1012.2mb 67f
1:10pm 16 24 mph 1011.9mb 67f
1:00pm 17 24 mph 1011.9mb 66f
12:50pm 16 23 mph 1011.9mb 66f
12:40pm 18 24 mph 1011.9mb 67f
12:30pm 20 25 mph 1011.9mb 67f
12:20pm 16 24 mph 1011.9mb 67f
12:10pm 20 26 mph 1011.9mb 66f
12:00pm 18 25 mph 1011.9mb 66f
11:50am 18 28 mph 1011.9mb 66f
11:40am 20 25 mph 1011.5mb 66f
11:30am 21 26 mph 1011.5mb 66f
11:20am 23 26 mph 1011.2mb 66f
11:10am 20 28 mph 1011.2mb 66f
11:00am 23 30 mph 1010.8mb 66f
10:50am 23 29 mph 1010.8mb 66f
10:40am 21
mph
1010.8mb 66f
10:30am 22 28 mph 1010.8mb 66f
10:20am 20 26 mph 1010.5mb 66f
10:10am 22 29 mph 1010.5mb 66f
10:07am 21 29 mph 1010.2mb 66f
10:00am 21 26 mph 1010.2mb 66f
9:50am 20 26 mph 1010.2mb 66f
9:40am 20 25 mph 1009.8mb 66f
9:30am 20 30 mph 1009.8mb 66f
9:20am 17 33 mph 1009.8mb 67f
9:10am 22 29 mph 1009.5mb 67f
9:00am 22 29 mph 1009.5mb 66f
8:50am 22 29 mph 1009.5mb 66f
8:40am 23 29 mph 1009.1mb 66f
8:38am 21 29 mph 1009.1mb 66f
8:30am 22 32 mph 1009.1mb 66f
8:20am 23 28 mph 1008.8mb 66f
8:10am 21 31 mph 1008.5mb 66f
8:00am 23 30 mph 1008.1mb 66f
7:50am 23 31 mph 1007.8mb 66f
7:40am 22 30 mph 1007.8mb 67f
7:30am 22 29 mph 1007.5mb 67f
7:23am 22 29 mph 1007.5mb 67f
7:20am 21 30 mph 1007.8mb 67f
7:10am 23 30 mph 1007.5mb 67f
7:00am 21 28 mph 1007.1mb 67f
6:50am 23 29 mph 1007.1mb 67f
6:40am 23 28 mph 1006.8mb 67f
6:30am 21 29 mph 1006.8mb 67f
6:20am 25 30 mph 1006.4mb 67f
6:16am 20 30 mph 1006.1mb 67f
6:10am 21 28 mph 1006.4mb 67f
6:00am 17 26 mph 1006.1mb 67f
5:50am 17 26 mph 1006.4mb 67f
5:40am 14 18 mph 1006.4mb 65f
5:30am 8 14 mph 1006.4mb 64f
5:20am 8 14 mph 1006.1mb 64f
5:10am 8 14 mph 1006.1mb 64f
5:00am 11 14 mph 1006.1mb 64f
4:50am 10 21 mph 1006.1mb 66f
4:40am 13 17 mph 1005.8mb 66f
4:30am 10 16 mph 1005.8mb 66f
4:20am 14 21 mph 1005.8mb 66f
4:10am 16 22 mph 1005.4mb 66f
4:00am 15 22 mph 1005.4mb 66f
3:50am 15 20 mph 1005.4mb 66f
3:40am 13 22 mph 1005.4mb 66f
3:30am 15 21 mph 1005.4mb 66f
3:20am 15 22 mph 1005.4mb 66f
3:10am 16 24 mph 1005.1mb 66f
3:00am 15 22 mph 1005.1mb 66f
2:50am 14 22 mph 1005.1mb 66f
2:40am 13 21 mph 1005.4mb 66f
2:30am 20 23 mph 1005.1mb 66f
2:20am 18 24 mph 1005.1mb 66f
2:10am 18 25 mph 1005.1mb 66f
2:00am 21 30 mph 1005.1mb 66f
1:51am 21 30 mph 1004.4mb 66f
1:50am 21 28 mph 1004.7mb 66f
1:40am 20 29 mph 1005.1mb 66f
1:30am 21 28 mph 1004.7mb 66f
1:20am 9 16 mph 1004.7mb 66f
1:10am 9 13 mph 1004.7mb 66f
1:00am 9 14 mph 1004.7mb 66f
12:50am 9 13 mph 1005.1mb 66f
12:40am 9 11 mph 1005.1mb 66f
12:30am 7 10 mph 1005.1mb 66f
12:20am 6 11 mph 1005.1mb 66f
12:10am 8 11 mph 1005.1mb 67f
12:00am 9 13 mph 1005.1mb 67f
Sun 07/27 11:50pm 10 13 mph 1005.1mb 67f
11:40pm 8 11 mph 1005.1mb 67f
11:30pm 7 10 mph 1004.7mb 67f
11:20pm 6 9 mph 1004.7mb 67f
11:10pm 6 7 mph 1004.7mb 67f
11:00pm 3 5 mph 1004.4mb 68f
10:50pm 3
mph
1004.4mb 68f
10:40pm  -  3 mph 1004.4mb 69f
10:30pm 2 6 mph 1004.4mb 69f
10:20pm 6 7 mph 1004.4mb 69f
10:10pm 6 10 mph 1004.7mb 69f
10:00pm 10 16 mph 1004.4mb 69f
9:50pm 9 16 mph 1004.7mb 69f
9:40pm 15 18 mph 1004.7mb 69f
9:30pm 15 23 mph 1005.1mb 69f
9:20pm 20 22 mph 1005.1mb 69f
9:10pm 18 25 mph 1004.7mb 69f
9:00pm 23 25 mph 1004.1mb 69f
8:50pm 23 29 mph 1004.1mb 69f
8:40pm 18 30 mph 1004.4mb 69f
8:30pm 22 30 mph 1004.7mb 69f
8:20pm 24 34 mph 1004.4mb 69f
8:10pm 28 34 mph 1003.7mb 69f
8:00pm 21 28 mph 1004.4mb 70f
7:50pm 14 18 mph 1004.4mb 68f
7:40pm 13 23 mph 1004.4mb 68f
7:30pm 16 22 mph 1004.1mb 68f
7:20pm 17 28 mph 1004.1mb 67f
7:10pm 21 36 mph 1004.4mb 68f
7:00pm 22 29 mph 1004.1mb 72f
6:50pm 9 14 mph 1003mb 74f
6:40pm 13 21 mph 1002.7mb 74f
6:30pm 14 20 mph 1002.4mb 74f
6:20pm 16 20 mph 1002.4mb 75f
6:10pm 11 18 mph 1002.4mb 76f
6:00pm 15 20 mph 1002.4mb 76f
5:50pm 13 20 mph 1002.4mb 76f
5:40pm 16 21 mph 1002.7mb 76f
5:30pm 14 23 mph 1002.7mb 76f
5:20pm 15 25 mph 1002.7mb 77f
5:10pm 14 18 mph 1002.7mb 77f
5:00pm 15 22 mph 1002.4mb 78f
4:50pm 11 24 mph 1002.4mb 79f
4:40pm 11 21 mph 1002.4mb 79f
4:30pm 13 16 mph 1002.4mb 79f
4:20pm 13 21 mph 1002.7mb 80f
4:10pm 10 16 mph 1003mb 81f
4:00pm 11 16 mph 1002.7mb 80f
3:50pm  -  9 mph 1003mb 76f
3:40pm 8 10 mph 1002.7mb 75f
3:30pm 9 11 mph 1003mb 75f
3:20pm 9 11 mph 1003.4mb 75f
3:10pm 9 11 mph 1003.4mb 77f
3:00pm 3 9 mph 1003.7mb 77f
2:50pm 7 11 mph 1003.7mb 78f
2:40pm 10 25 mph 1003.7mb 76f
2:30pm 7 13 mph 1004.4mb 75f
2:20pm 7 20 mph 1004.7mb 74f
2:10pm 20 25 mph 1005.1mb 77f
2:00pm 7 13 mph 1005.1mb 80f
1:50pm 9 15 mph 1005.1mb 80f
1:00pm 11 15 mph 1005.1mb 82f
12:50pm 8 14 mph 1005.4mb 83f
12:40pm 7 17 mph 1005.8mb 83f
12:30pm 11 16 mph 1006.1mb 83f
12:20pm 8 13 mph 1006.1mb 82f
12:10pm 9 13 mph 1006.4mb 82f
12:00pm 7 15 mph 1006.4mb 82f
11:50am 11 15 mph 1006.4mb 81f
11:40am 5 10 mph 1006.4mb 81f
11:30am 8 10 mph 1006.4mb 81f
11:20am 5 8 mph 1006.4mb 79f
11:10am 8 11 mph 1006.8mb 79f
11:00am 9 11 mph 1007.1mb 80f
10:50am 9 11 mph 1007.5mb 80f
10:40am 5 10 mph 1007.5mb 80f
10:30am 8 10 mph 1007.5mb 79f
10:20am 7 10 mph 1007.8mb 80f
10:10am 5 11 mph 1007.8mb 80f
10:00am 7 9 mph 1008.1mb 80f
9:50am 3 7 mph 1008.1mb 80f
9:40am 6 8 mph 1008.1mb 78f
9:30am 6 7 mph 1008.1mb 76f
9:20am 6 9 mph 1008.1mb 77f
9:10am 6 10 mph 1008.5mb 79f
9:00am 7 9 mph 1008.5mb 79f
8:50am 2 5 mph 1008.5mb 80f
8:40am 5 7 mph 1008.5mb 78f
8:30am 6 10 mph 1008.8mb 76f
8:20am 7 9 mph 1008.5mb 77f
8:10am 7 8 mph 1008.5mb 75f
8:00am 5 8 mph 1008.5mb 75f
7:50am 7 9 mph 1008.5mb 76f
7:40am 3 7 mph 1008.5mb 75f
7:30am 5 8 mph 1008.1mb 75f
7:20am 5 8 mph 1008.1mb 75f
7:10am 6 9 mph 1008.5mb 74f
7:00am 6 9 mph 1008.1mb 73f
6:50am 7 9 mph 1008.5mb 74f
6:40am 7 9 mph 1008.5mb 73f
6:30am 5 7 mph 1008.5mb 72f
6:20am 7 10 mph 1008.8mb 72f
6:10am 7 10 mph 1008.8mb 72f
6:00am 8 10 mph 1008.8mb 72f
5:50am 9 10 mph 1008.8mb 72f
5:40am 6 7 mph 1008.5mb 72f
5:30am 6 7 mph 1008.1mb 72f
5:20am 7 8 mph 1008.1mb 71f
5:10am 6 8 mph 1008.5mb 72f
5:00am 7 9 mph 1008.5mb 72f
4:50am 6 8 mph 1008.5mb 71f
4:40am 6 8 mph 1008.5mb 72f
4:30am 7 9 mph 1008.5mb 72f
4:20am 7 10 mph 1008.5mb 72f
4:10am 8 10 mph 1008.8mb 72f
4:00am 8 9 mph 1008.8mb 72f
3:50am 8 9 mph 1008.8mb 72f
3:40am 7 8 mph 1008.8mb 72f
3:30am 6 7 mph 1008.8mb 72f
3:20am 5 7 mph 1008.8mb 73f
3:10am 6 7 mph 1008.8mb 73f
3:00am 6
mph
1008.8mb 73f
2:50am 5 7 mph 1008.8mb 73f
2:40am 3 7 mph 1008.8mb 74f
2:30am 3 7 mph 1008.8mb 74f
2:20am 6 10 mph 1008.8mb 74f
2:10am 8 11 mph 1008.8mb 74f
2:00am 6 9 mph 1008.8mb 74f
1:50am 9 11 mph 1009.1mb 74f
1:40am 6 9 mph 1009.1mb 74f
1:30am 7 11 mph 1009.1mb 74f
1:20am 7 10 mph 1009.1mb 74f
1:10am 7 11 mph 1009.1mb 74f
1:00am 10 13 mph 1008.8mb 74f
12:50am 9 13 mph 1008.8mb 74f
12:40am 9 13 mph 1008.8mb 74f
12:30am 10 13 mph 1008.8mb 74f
12:20am 9 13 mph 1008.8mb 74f
12:10am 10 16 mph 1008.8mb 74f
12:00am 9 11 mph 1008.8mb 74f
Sat 07/26 11:50pm 8 10 mph 1008.5mb 74f
11:40pm 9 11 mph 1008.8mb 74f
11:30pm 8 11 mph 1008.8mb 74f
11:20pm 8 11 mph 1008.8mb 74f
11:10pm 7 10 mph 1008.8mb 74f
11:00pm 8 11 mph 1008.8mb 74f
10:50pm 8 9 mph 1008.8mb 74f
10:40pm 7 10 mph 1008.8mb 74f
10:30pm 8 10 mph 1008.8mb 74f
10:20pm 7 10 mph 1008.8mb 74f
10:10pm 7 9 mph 1009.1mb 74f
10:00pm 7 9 mph 1009.1mb 74f
9:50pm 6 8 mph 1009.1mb 74f
9:40pm 7 10 mph 1009.1mb 74f
9:30pm 8 11 mph 1009.5mb 74f
9:20pm 9 14 mph 1009.5mb 74f
9:10pm 8 9 mph 1009.5mb 74f
9:00pm 7 8 mph 1009.5mb 74f
8:50pm 6 8 mph 1009.5mb 75f
8:40pm 7 11 mph 1009.5mb 75f
8:30pm 8 11 mph 1009.5mb 75f
8:20pm 8 13 mph 1009.1mb 75f
8:10pm 9 10 mph 1009.8mb 75f
8:00pm 8 14 mph 1009.5mb 75f
7:50pm 7 11 mph 1009.5mb 75f
7:40pm 7 10 mph 1009.5mb 75f
7:30pm 6 10 mph 1009.5mb 76f
7:20pm 8 11 mph 1009.5mb 76f
7:10pm 7 11 mph 1009.5mb 76f
7:00pm 8 11 mph 1009.5mb 76f
6:50pm 8 14 mph 1009.1mb 76f
6:40pm 10 14 mph 1009.1mb 76f
6:30pm 6 10 mph 1009.1mb 75f
6:20pm 7 11 mph 1008.8mb 75f
6:10pm 8 13 mph 1009.1mb 74f
6:00pm 9 13 mph 1008.8mb 74f
5:50pm 10 18 mph 1009.1mb 74f
5:40pm 11 23 mph 1008.8mb 74f
5:30pm 9 14 mph 1009.1mb 74f
5:20pm 8 11 mph 1009.5mb 73f
5:10pm 8 13 mph 1009.5mb 73f
5:00pm 10 14 mph 1009.5mb 73f
4:50pm 9 15 mph 1009.5mb 73f
4:40pm 9 14 mph 1009.5mb 73f
4:30pm 8 16 mph 1009.8mb 74f
4:20pm 11 16 mph 1009.8mb 75f
4:10pm 15 21 mph 1010.2mb 76f
4:00pm 15 23 mph 1010.2mb 77f
3:50pm 9 14 mph 1009.8mb 79f
3:40pm 10 13 mph 1009.8mb 80f
3:30pm 8 16 mph 1009.8mb 80f
3:20pm 10 15 mph 1009.8mb 80f
3:10pm 9 15 mph 1009.8mb 81f
3:00pm 7 11 mph 1009.8mb 80f
2:50pm 7 13 mph 1010.2mb 81f
2:40pm 8 10 mph 1009.8mb 80f
2:30pm 7 17 mph 1010.5mb 80f
2:20pm 10 13 mph 1010.5mb 80f
2:10pm 8 14 mph 1010.8mb 80f
2:00pm 11 17 mph 1011.2mb 80f
1:50pm 13 17 mph 1010.8mb 80f
1:40pm 10 16 mph 1011.2mb 80f
1:30pm 10 15 mph 1011.2mb 80f
1:20pm 11 16 mph 1011.5mb 79f
1:10pm 13 16 mph 1011.9mb 80f
1:00pm 10 15 mph 1011.9mb 79f
12:50pm 11 16 mph 1011.9mb 79f
12:40pm 9 15 mph 1011.9mb 78f
12:30pm 11 17 mph 1011.9mb 79f
12:20pm 8 15 mph 1012.2mb 79f
12:10pm 13 17 mph 1012.2mb 79f
12:00pm 9 15 mph 1012.2mb 79f
11:50am 8 20 mph 1012.2mb 79f
11:40am 7 14 mph 1012.5mb 79f
11:30am 9 16 mph 1012.5mb 78f
11:20am 11 15 mph 1012.5mb 78f
11:10am 9 13 mph 1012.9mb 78f
11:00am 8 14 mph 1012.9mb 78f
10:50am 8 15 mph 1012.9mb 77f
10:40am 9 15 mph 1012.9mb 78f
10:30am 9 15 mph 1012.9mb 77f
10:20am 9 14 mph 1012.9mb 76f
10:10am 10 16 mph 1013.2mb 77f
10:00am 8 14 mph 1013.2mb 77f
9:50am 13 16 mph 1013.2mb 76f
9:40am 9 14 mph 1013.2mb 76f
9:30am 7 13 mph 1013.2mb 76f
9:20am 8 15 mph 1013.2mb 74f
9:10am 11 15 mph 1012.9mb 74f
9:00am 9 13 mph 1013.2mb 74f
8:50am 9 15 mph 1013.5mb 74f
8:40am 8 10 mph 1013.5mb 75f
8:30am 8 10 mph 1013.5mb 74f
8:20am 8 11 mph 1013.5mb 73f
8:10am 7 10 mph 1013.2mb 73f
8:00am 7 10 mph 1013.5mb 72f
7:50am 7 11 mph 1013.5mb 71f
7:40am 10 13 mph 1013.5mb 71f
7:30am 8 11 mph 1013.5mb 71f
7:20am 6 10 mph 1013.5mb 71f
7:10am 6 9 mph 1013.5mb 70f
7:00am 7 13 mph 1013.5mb 70f
6:50am 7 11 mph 1013.2mb 69f
6:40am 8 9 mph 1013.2mb 69f
6:30am 6 10 mph 1013.2mb 68f
6:20am 7 10 mph 1013.2mb 67f
6:10am 8 9 mph 1013.5mb 67f
6:00am 7 11 mph 1013.2mb 66f
5:50am 8 10 mph 1013.5mb 65f
5:40am 8 10 mph 1013.5mb 65f
5:30am 7 10 mph 1013.5mb 65f
5:20am 7 10 mph 1013.5mb 65f
5:10am 7 10 mph 1013.5mb 65f
5:00am 5 9 mph 1013.5mb 65f
4:50am 6 8 mph 1013.5mb 65f
4:40am 7 9 mph 1013.5mb 65f
4:30am 7 9 mph 1013.9mb 65f
4:20am 6 9 mph 1013.5mb 65f
4:10am 7 9 mph 1013.5mb 65f
4:00am 6 8 mph 1013.5mb 66f
3:50am 6 8 mph 1013.5mb 66f
3:40am 5 7 mph 1013.9mb 66f
3:30am 5 7 mph 1013.9mb 66f
3:20am 5 7 mph 1013.9mb 66f
3:10am 6 8 mph 1013.9mb 66f
3:00am 6 8 mph 1014.2mb 66f
2:50am 5 8 mph 1014.2mb 66f
2:40am 5 7 mph 1014.2mb 66f
2:30am 5 8 mph 1014.2mb 66f
2:20am 7 8 mph 1014.6mb 66f
2:10am 8 9 mph 1014.6mb 66f
2:00am 7 8 mph 1014.6mb 66f
1:50am 6 7 mph 1014.6mb 66f
1:40am 3 5 mph 1014.6mb 66f
1:30am 5 7 mph 1014.6mb 66f
1:20am 5 7 mph 1014.6mb 66f
1:10am 6 7 mph 1014.9mb 66f
1:00am 3 8 mph 1014.9mb 66f
12:50am 6 8 mph 1014.9mb 66f
12:40am 6 7 mph 1014.9mb 65f
12:30am 5 7 mph 1015.2mb 66f
12:20am 7 9 mph 1014.9mb 66f
12:10am 7 9 mph 1014.9mb 66f
12:00am 7 9 mph 1015.2mb 66f
Fri 07/25 11:50pm 5 7 mph 1015.6mb 67f
11:40pm 3 7 mph 1015.6mb 67f
11:30pm 5 7 mph 1015.2mb 67f
11:20pm 5 6 mph 1015.2mb 67f
11:10pm 3 5 mph 1015.2mb 67f
11:00pm 2
mph
1014.9mb 67f
10:50pm 2 3 mph 1014.9mb 67f
10:40pm 3 5 mph 1014.9mb 67f
10:30pm  -  1 mph 1014.9mb 68f
10:20pm  -  2 mph 1014.9mb 68f
10:10pm 2 3 mph 1014.9mb 68f
10:00pm 2 6 mph 1015.2mb 68f
9:50pm 2 3 mph 1015.2mb 68f
9:40pm 2 7 mph 1015.2mb 69f
9:30pm 3 7 mph 1015.2mb 69f
9:20pm 3 5 mph 1015.2mb 70f
9:10pm 3 5 mph 1015.2mb 70f